STARLINK-1776, 46682

Orbit data source: Space-Track

STARLINK-1776, 46682 is a payload satellite owned by SpaceX/Seattle (US) in LEO that was launched on Sun, 18 Oct 2020 UTC via an FALCON 9 launch vehicle from the Air Force Eastern Test Range (AFETR). Payloads include a variety of satellites, spacecraft, and rockets equipped with specific instruments for various scientific and technological missions. These include communications satellites like Starlink; space stations such as the ISS; scientific satellites like the Hubble; Earth observation satellites from companies like Planet Labs, Umbra, and HawkEye 360; GPS; miniature CubeSats for education and research; and military/defense satellites.

Loading next visibility...
STARLINK-1776 details
Identifier
46682, 2020-073N
Orbit
LEO
Last TLE update12 hours ago
Origin
Flag of USSpaceX/Seattle (US)
ManufacturerSpaceX/Seattle
MissionPartially operational Commercial Communications
Bus & MotorSTARLINK, Unknown motor
Mass260 kg wet, ~248 kg dry
Launch date (UTC)
2020-10-18 (4 years ago)
Launch vehicle
FALCON 9
Launch site
Air Force Eastern Test Range (AFETR)
Object type
Payload
Rocket body
Debris
Shape & HBRBox + 1 Pan, 8.86 m
Radar Cross Section13.562 m², Large (>1 m²)

Expand to show TLE details & history

TLE from 12 hours ago
0 STARLINK-1776
1 46682U 20073N   25013.58334491  .00482728  00000-0  20143-2 0  9999
2 46682  53.0520 323.7662 0009740 104.2710 271.6505 15.83815110  5900
Epoch: 2025-01-13T14:00Z
Definitive object data (Epoch: 2025-01-13T14:00:01Z)
Latitude12.57455°
Longitude10.06293°
Altitude319.624 km
Speed7.719 km/s
True Right ascension22h 13m 28s
True Declination12° 29' 49"
Sunlit
Object was in daylight at TLE epoch
Visualization TLE readout
Latitude50.42685°
Longitude62.66962°
Altitude318.75 km
Speed7.726 km/s
Apparent Right ascension18h 47m 36s
Apparent Declination34° 14' 01"
Sunlit
Object is in daylight
Visualization observer readout
Local Sidereal Time02:56:19
Azimuth315.578° NNW
Elevation1.333°
Doppler factor1
Orbital elements
Apogee altitude326.467 km
Perigee altitude313.419 km
Semi-major axis6,698.08 km
Eccentricity0.000974
Inclination53.052°
RAAN323.7662°
Arg. of periapsis104.271°
True anomaly271.53893°
Mean anomaly271.6505°
Eccentric anomaly271.59472°
Mean motion3.95929 °/min
BSTAR0.0020143
Orbital period90.93 mins
Loading maneuver chart data...
Loading historical data...
Loading historical data...
Loading historical data...
Loading historical data...
Loading historical data...
Loading historical data...
Loading historical data...

STARLINK-1776 Visibility forecast

Observer location: undefined°, undefined

Span
Click to sort rows by Start time (UTC) header in descending order
Start Az.
Max El. time (UTC)
Max El. Az.
Max El.
End time (UTC)
End Az.
4 mins2025-01-14 23:26:33.889Z252.898° W2025-01-14 23:28:33.889Z318.306° NNW34.2°2025-01-14 23:30:33.889Z33.556° NE
|